FW5768 Weather Reports


time (UTC)temp
C
wind
direction
speed
KPH
gust
KPH
rain 1hr
cm
rain 24hr
cm
rain mn
cm
humidity
%
barometer
mb
20260504192304 13 253 4.8 9.7 0.00 0.00 0.00 54 1012.7
20260504191804 14 285 3.2 11.3 0.00 0.00 0.00 53 1012.8
20260504191304 15 268 6.4 11.3 0.00 0.00 0.00 52 1012.4
20260504190805 15 255 4.8 11.3 0.00 0.00 0.00 51 1012.4
20260504190305 15 271 6.4 11.3 0.00 0.00 0.00 50 1012.3
20260504185805 15 262 6.4 11.3 0.00 0.00 0.00 49 1012.1
20260504185305 15 241 4.8 11.3 0.00 0.00 0.00 49 1012.2
20260504184305 16 224 8.0 14.5 0.00 0.00 0.00 46 1011.8
20260504183305 17 258 6.4 14.5 0.00 0.00 0.00 45 1011.8
20260504182304 17 253 9.7 22.5 0.00 0.00 0.00 42 1011.6
20260504181804 17 268 11.3 22.5 0.00 0.00 0.00 42 1011.4
20260504181305 17 269 11.3 20.9 0.00 0.00 0.00 41 1011.5
20260504180804 17 275 9.7 20.9 0.00 0.00 0.00 42 1011.4
20260504175804 17 264 8.0 20.9 0.00 0.00 0.00 43 1011.6
20260504175304 17 260 9.7 20.9 0.00 0.00 0.00 43 1011.3
20260504174305 18 272 11.3 20.9 0.00 0.00 0.00 42 1011.3
20260504173804 18 317 9.7 19.3 0.00 0.00 0.00 41 1011.2
20260504173304 18 267 8.0 16.1 0.00 0.00 0.00 42 1011.5
20260504172804 18 263 4.8 14.5 0.00 0.00 0.00 43 1011.1
20260504172304 18 263 8.0 24.1 0.00 0.00 0.00 42 1011.2
20260504170805 20 263 9.7 16.1 0.00 0.00 0.00 38 1010.9
20260504170304 20 306 8.0 16.1 0.00 0.00 0.00 40 1010.9
20260504160304 19 273 11.3 22.5 0.00 0.00 0.00 41 1010.8
20260504150804 20 255 4.8 14.5 0.00 0.05 0.00 43 1010.7
20260504150304 20 260 9.7 25.7 0.00 0.05 0.00 42 1010.7
20260504141304 20 231 9.7 24.1 0.00 0.10 0.00 46 1010.7
20260504140804 20 237 4.8 19.3 0.00 0.10 0.00 46 1011.0
20260504140304 20 254 4.8 14.5 0.00 0.10 0.00 46 1011.2
20260504130804 18 308 9.7 20.9 0.00 0.10 0.00 53 1011.7
20260504120305 18 237 8.0 24.1 0.00 1.57 0.00 45 1011.9
20260504110304 18 228 11.3 20.9 0.00 1.57 0.00 53 1012.2
20260504100305 17 276 9.7 19.3 0.00 1.57 0.00 62 1012.4
20260504081805 13 228 1.6 8.0 0.00 1.57 0.00 82 1013.0
20260504081304 13 233 4.8 9.7 0.00 1.57 0.00 83 1013.0
20260504080804 13 219 6.4 9.7 0.00 1.57 0.00 84 1013.2
20260504080304 13 236 6.4 11.3 0.00 1.57 0.00 85 1013.2
20260504050304 11 257 1.6 3.2 0.00 1.57 0.00 93 1011.8
20260504045804 11 230 0.0 1.6 0.00 1.57 0.00 93 1011.9
20260504045305 11 242 1.6 4.8 0.00 1.57 0.00 93 1011.9
20260504044805 11 236 3.2 4.8 0.00 1.57 0.00 93 1011.7
20260504044304 11 178 1.6 3.2 0.00 1.57 0.00 94 1011.9
20260504043804 11 200 0.0 3.2 0.00 1.57 0.00 94 1011.8
20260504043304 11 206 0.0 1.6 0.00 1.57 0.00 94 1011.8
20260504042804 11 216 0.0 3.2 0.00 1.57 0.00 94 1011.8
20260504042305 11 140 3.2 4.8 0.00 1.57 0.00 95 1011.8
20260504041804 11 142 1.6 3.2 0.00 1.57 0.00 95 1011.7
20260504041304 11 142 1.6 3.2 0.00 1.57 0.00 96 1011.9
20260504040804 11 78 0.0 0.0 0.00 1.57 0.00 96 1012.1
20260504040305 11 62 0.0 0.0 0.00 1.57 0.00 96 1012.0
20260504035804 11 108 0.0 0.0 0.00 1.57 0.00 96 1012.0
20260504035305 11 125 0.0 0.0 0.00 1.57 0.00 96 1012.0
20260504033804 11 256 1.6 3.2 0.00 1.57 0.00 95 1012.4
20260504032805 12 255 3.2 11.3 0.00 1.57 0.00 95 1012.7
20260504032304 12 264 1.6 4.8 0.00 1.57 0.00 95 1012.5
20260504031804 12 144 3.2 8.0 0.00 1.57 0.00 95 1012.1
20260504031304 12 126 3.2 8.0 0.00 1.57 0.00 95 1011.9
20260504025804 12 110 3.2 8.0 0.00 1.57 0.00 95 1011.9
20260504024804 12 80 3.2 9.7 0.00 1.57 0.00 95 1012.0
20260504024304 12 88 3.2 8.0 0.00 1.57 0.00 95 1011.8
20260504023804 12 105 3.2 8.0 0.00 1.57 0.00 95 1011.8
20260504022804 12 129 3.2 4.8 0.00 1.57 0.00 95 1011.9
20260504022305 12 121 3.2 9.7 0.00 1.57 0.00 95 1012.2
20260504021804 12 128 3.2 8.0 0.00 1.57 0.00 95 1012.1
20260504020804 12 121 3.2 4.8 0.00 1.57 0.00 95 1012.2
20260504020305 12 130 4.8 9.7 0.00 1.57 0.00 95 1012.4
20260504015804 12 143 4.8 8.0 0.00 1.57 0.00 95 1012.3
20260504015305 12 158 1.6 4.8 0.00 1.57 0.00 95 1012.3
20260504014804 12 120 3.2 9.7 0.00 1.57 0.00 95 1012.4
20260504014304 12 128 3.2 8.0 0.00 1.57 0.00 95 1012.4
20260504013804 12 135 3.2 8.0 0.00 1.57 0.00 95 1012.3
20260504011804 12 182 1.6 3.2 0.00 1.57 0.00 95 1012.8
20260504011304 12 177 1.6 4.8 0.00 1.57 0.00 95 1012.9
20260504010804 12 149 3.2 8.0 0.00 1.57 0.00 95 1012.9
20260504010304 12 120 1.6 9.7 0.00 1.57 0.00 95 1012.9
20260504005804 12 92 3.2 9.7 0.00 1.57 0.00 95 1013.0
20260504005305 12 128 4.8 11.3 0.00 1.57 0.00 95 1013.0
20260504004804 12 147 3.2 8.0 0.00 1.57 0.00 95 1012.7
20260504004304 12 106 3.2 8.0 0.00 1.57 0.00 95 1012.8
20260504003805 12 134 4.8 9.7 0.00 1.57 0.00 95 1013.0
20260504003304 12 136 4.8 9.7 0.00 1.57 0.00 95 1013.1
20260504002304 12 96 4.8 11.3 0.00 1.57 0.00 95 1013.3
20260504001804 12 133 4.8 11.3 0.00 1.57 0.00 95 1013.2
20260504001304 12 121 4.8 12.9 0.00 1.57 0.00 95 1012.8
20260504000804 12 118 4.8 11.3 0.00 1.57 0.00 95 1012.5
20260504000304 12 124 4.8 9.7 0.00 1.57 0.00 95 1012.4
20260503235804 12 128 3.2 11.3 0.00 1.57 0.00 95 1012.7
20260503235304 12 140 3.2 9.7 0.00 1.57 0.00 95 1012.7
20260503234804 12 119 3.2 12.9 0.00 1.57 0.00 95 1012.8
20260503233804 12 125 3.2 11.3 0.00 1.57 0.00 94 1012.9
20260503233304 12 72 4.8 9.7 0.00 1.57 0.00 94 1012.9
20260503232804 12 138 4.8 11.3 0.00 1.57 0.00 94 1013.0
20260503232305 12 113 4.8 12.9 0.00 1.57 0.00 94 1012.9
20260503231805 12 135 4.8 11.3 0.00 1.57 0.00 94 1013.0
20260503231304 12 143 3.2 9.7 0.00 1.57 0.00 94 1012.9
20260503230804 12 132 4.8 12.9 0.00 1.57 0.00 94 1012.9
20260503230304 12 166 3.2 9.7 0.00 1.57 0.00 94 1013.0
20260503225804 12 148 3.2 9.7 0.00 1.57 0.00 94 1013.1
20260503225305 12 121 3.2 9.7 0.00 1.57 0.00 94 1013.4
20260503224304 13 107 3.2 12.9 0.00 1.57 0.00 93 1013.4
20260503223804 13 103 3.2 11.3 0.00 1.57 0.00 93 1013.3
20260503223304 13 107 3.2 11.3 0.00 1.57 0.00 93 1013.2
20260503222804 13 94 4.8 9.7 0.00 1.57 0.00 93 1013.2
20260503222304 13 113 4.8 9.7 0.00 1.57 0.00 93 1013.3
20260503221804 13 165 3.2 9.7 0.00 1.57 0.00 93 1013.3
20260503220804 13 94 4.8 11.3 0.00 1.57 0.00 93 1013.4
20260503215804 13 134 4.8 9.7 0.00 1.57 1.57 93 1013.4
20260503215304 13 116 3.2 11.3 0.00 1.57 1.57 92 1013.3
20260503214804 13 130 4.8 12.9 0.00 1.57 1.57 92 1013.5
20260503214304 13 110 4.8 9.7 0.00 1.57 1.57 92 1013.5
20260503213804 13 143 3.2 8.0 0.00 1.57 1.57 92 1013.4
20260503213304 13 143 3.2 9.7 0.00 1.57 1.57 92 1013.5
20260503212804 13 116 4.8 11.3 0.00 1.57 1.57 92 1013.5
20260503211804 13 108 3.2 9.7 0.00 1.57 1.57 92 1013.5
20260503210804 13 134 4.8 9.7 0.00 1.57 1.57 91 1013.4
20260503210305 14 102 4.8 11.3 0.00 1.57 1.57 91 1013.3
20260503205804 14 120 4.8 12.9 0.00 1.57 1.57 90 1013.3
20260503205304 14 157 1.6 9.7 0.00 1.57 1.57 90 1013.1
20260503204804 14 154 3.2 11.3 0.00 1.57 1.57 90 1013.1
20260503203804 14 88 4.8 11.3 0.00 1.57 1.57 89 1013.1
20260503203304 15 75 3.2 14.5 0.00 1.57 1.57 89 1012.9
20260503202804 15 102 6.4 14.5 0.00 1.57 1.57 89 1012.7
20260503201804 15 143 1.6 9.7 0.00 1.57 1.57 86 1012.7
20260503201304 15 154 4.8 9.7 0.00 1.57 1.57 84 1012.6
20260503200304 15 79 1.6 4.8 0.00 1.57 1.57 69 1012.4
20260503195804 16 102 1.6 3.2 0.00 1.57 1.57 68 1012.3
20260503195305 16 124 1.6 3.2 0.00 1.57 1.57 66 1012.3
20260503194804 16 137 0.0 1.6 0.00 1.57 1.57 66 1012.3
20260503194304 16 211 1.6 1.6 0.00 1.57 1.57 66 1012.2
20260503193805 16 234 0.0 3.2 0.00 1.57 1.57 66 1012.0
20260503193304 16 167 1.6 1.6 0.00 1.57 1.57 68 1012.1
20260503192804 16 215 0.0 1.6 0.00 1.57 1.57 67 1012.0